{"data":{"norad_id":49206,"intl_designator":"2021-083W","name":"ONEWEB-0340","alt_names":[],"object_type":"PAYLOAD","status":"ACTIVE","operator":null,"country":"UK","launch_date":"2021-09-14","launch_site_code":"TYMSC","launch_vehicle":null,"mission":null,"orbit_class":"UNKNOWN","rcs_meters":null,"size_class":null,"mass_kg":null,"dimensions":null,"purposes":["comms"],"wikipedia_slug":null,"has_3d_model":false,"image_url":null,"decayed_at":null,"tle_current":{"epoch":"2026-05-25T01:36:34.967232Z","epoch_age_seconds":65277,"freshness":"FRESH","line1":"1 49206U 21083W   26145.06707138  .00000022  00000+0  22521-4 0  9994","line2":"2 49206  87.9171 340.0560 0001914  91.4735 268.6616 13.18686419226921","mean_motion":13.18686419,"eccentricity":0.0001914,"inclination_deg":87.9171,"raan_deg":340.056,"arg_perigee_deg":91.4735,"mean_anomaly_deg":268.6616,"bstar":2.2521e-5,"rev_number":22692,"period_min":109.19957764424,"perigee_km":1188.2930318364,"apogee_km":1191.1900157353,"semimajor_km":7567.8785237859,"source":"CELESTRAK","updated_at":"2026-05-25T13:38:22.513860Z"}}}